EWG6767 EDDL-LGKR

Flight info

Callsign EWG6767
Flight time 2h 17m
Altitude 35000
Route DODEN7Z/05R DODEN Y853 BOMBI DCT DETEV DCT DINKU/N0455F330 M867 XERUM DCT BAVAX DCT RADIZ/N0450F350 DCT ALIVO DCT UNIPA DCT VAKSU DCT RODON DCT LIMJA N732 PITAS PITAS2P
Aircraft A320/M-SDE3FGHIRWY/LB1

Departure

Time 2026-05-05 13:27
Airport Düsseldorf Airport (EDDL)

Arrival

Time 2026-05-05 15:44
Airport Corfu Ioannis Kapodistrias International Airport (LGKR)
Time Latitude Longitude Altitude Speed Heading
2026-05-05 13:06 51.28390 6.77188 132 ft 0 kts 143°
2026-05-05 13:09 51.28390 6.77187 132 ft 0 kts 143°
2026-05-05 13:18 51.28391 6.77187 132 ft 1 kts 143°
2026-05-05 13:18 51.28411 6.77165 133 ft 4 kts 154°
2026-05-05 13:19 51.28436 6.77152 133 ft 4 kts 184°
2026-05-05 13:19 51.28455 6.77163 134 ft 1 kts 232°
2026-05-05 13:19 51.28457 6.77169 134 ft 1 kts 232°
2026-05-05 13:22 51.28420 6.77090 133 ft 19 kts 233°
2026-05-05 13:22 51.28364 6.76967 133 ft 6 kts 234°
2026-05-05 13:22 51.28342 6.76907 132 ft 6 kts 243°
2026-05-05 13:23 51.28352 6.76878 132 ft 2 kts 332°
2026-05-05 13:23 51.28385 6.76851 134 ft 9 kts 331°
2026-05-05 13:23 51.28450 6.76767 136 ft 13 kts 300°
2026-05-05 13:23 51.28425 6.76638 134 ft 13 kts 228°
2026-05-05 13:24 51.28369 6.76529 133 ft 12 kts 234°
2026-05-05 13:24 51.28322 6.76425 132 ft 11 kts 227°
2026-05-05 13:24 51.28277 6.76334 132 ft 9 kts 234°
2026-05-05 13:24 51.28231 6.76233 134 ft 18 kts 233°
2026-05-05 13:25 51.28152 6.76061 133 ft 19 kts 235°
2026-05-05 13:25 51.28076 6.75906 133 ft 17 kts 233°
2026-05-05 13:25 51.28004 6.75755 127 ft 16 kts 232°
2026-05-05 13:25 51.27937 6.75615 127 ft 16 kts 233°
2026-05-05 13:26 51.27870 6.75474 124 ft 16 kts 234°
2026-05-05 13:26 51.27897 6.75300 123 ft 23 kts 327°
2026-05-05 13:26 51.28024 6.75339 119 ft 17 kts 56°
2026-05-05 13:26 51.28127 6.75538 125 ft 47 kts 50°
2026-05-05 13:27 51.28488 6.76297 132 ft 122 kts 52°
2026-05-05 13:27 51.29125 6.77600 274 ft 166 kts 52°
2026-05-05 13:27 51.29770 6.79086 1042 ft 163 kts 51°
2026-05-05 13:27 51.30449 6.80541 1877 ft 162 kts 51°
2026-05-05 13:28 51.31162 6.82019 2228 ft 177 kts 52°
2026-05-05 13:28 51.31958 6.83679 2419 ft 200 kts 53°
2026-05-05 13:28 51.32834 6.85509 2665 ft 219 kts 53°
2026-05-05 13:28 51.33804 6.87569 2958 ft 244 kts 54°
2026-05-05 13:29 51.34692 6.89991 3472 ft 258 kts 69°
2026-05-05 13:29 51.35105 6.92818 4221 ft 264 kts 86°
2026-05-05 13:29 51.34992 6.95774 4979 ft 268 kts 101°
2026-05-05 13:29 51.34689 6.98702 5754 ft 272 kts 101°
2026-05-05 13:30 51.34381 7.01720 6549 ft 275 kts 101°
2026-05-05 13:30 51.34073 7.04754 7307 ft 278 kts 101°
2026-05-05 13:30 51.33762 7.07836 8088 ft 281 kts 101°
2026-05-05 13:30 51.33453 7.10898 8878 ft 283 kts 101°
2026-05-05 13:31 51.33133 7.14032 9648 ft 286 kts 103°
2026-05-05 13:31 51.32541 7.17060 10316 ft 287 kts 118°
2026-05-05 13:31 51.31462 7.19743 10975 ft 288 kts 133°
2026-05-05 13:31 51.30035 7.22070 11330 ft 304 kts 137°
2026-05-05 13:32 51.28471 7.24530 11466 ft 326 kts 137°
2026-05-05 13:32 51.26796 7.27157 11598 ft 347 kts 137°
2026-05-05 13:32 51.25053 7.29896 11889 ft 361 kts 137°
2026-05-05 13:32 51.23247 7.32742 12453 ft 367 kts 137°
2026-05-05 13:33 51.21418 7.35629 13059 ft 371 kts 137°
2026-05-05 13:33 51.19569 7.38542 13663 ft 375 kts 137°
2026-05-05 13:33 51.17708 7.41468 14199 ft 378 kts 137°
2026-05-05 13:33 51.15831 7.44415 14755 ft 381 kts 137°
2026-05-05 13:34 51.13955 7.47343 15279 ft 383 kts 137°
2026-05-05 13:34 51.12029 7.50305 15816 ft 386 kts 137°
2026-05-05 13:34 51.10078 7.53279 16336 ft 389 kts 137°
2026-05-05 13:34 51.08111 7.56264 16846 ft 392 kts 137°
2026-05-05 13:35 51.06123 7.59278 17349 ft 395 kts 137°
2026-05-05 13:35 51.04148 7.62274 17856 ft 398 kts 137°
2026-05-05 13:35 51.02137 7.65326 18318 ft 401 kts 137°
2026-05-05 13:35 51.00106 7.68406 18754 ft 403 kts 137°
2026-05-05 13:36 50.98071 7.71493 19182 ft 405 kts 138°
2026-05-05 13:36 50.95933 7.74328 19625 ft 406 kts 146°
2026-05-05 13:36 50.93546 7.76734 20052 ft 407 kts 149°
2026-05-05 13:36 50.91128 7.79114 20488 ft 409 kts 149°
2026-05-05 13:37 50.88689 7.81514 20921 ft 411 kts 149°
2026-05-05 13:37 50.86274 7.83887 21333 ft 413 kts 149°
2026-05-05 13:37 50.83817 7.86299 21757 ft 416 kts 149°
2026-05-05 13:37 50.81331 7.88732 22192 ft 418 kts 149°
2026-05-05 13:38 50.78873 7.91134 22607 ft 420 kts 149°
2026-05-05 13:38 50.76372 7.93578 23013 ft 422 kts 149°
2026-05-05 13:38 50.73891 7.96005 23393 ft 424 kts 149°
2026-05-05 13:38 50.71375 7.98468 23715 ft 426 kts 149°
2026-05-05 13:39 50.68841 8.00947 24031 ft 428 kts 150°
2026-05-05 13:39 50.66303 8.03424 24354 ft 429 kts 150°
2026-05-05 13:39 50.63782 8.05874 24675 ft 431 kts 150°
2026-05-05 13:39 50.61213 8.08370 24989 ft 432 kts 149°
2026-05-05 13:40 50.58785 8.11199 25296 ft 436 kts 142°
2026-05-05 13:40 50.56473 8.14242 25590 ft 437 kts 142°
2026-05-05 13:40 50.54128 8.17323 25879 ft 439 kts 142°
2026-05-05 13:40 50.51775 8.20415 26152 ft 440 kts 142°
2026-05-05 13:41 50.49446 8.23471 26437 ft 441 kts 143°
2026-05-05 13:41 50.47071 8.26579 26707 ft 443 kts 143°
2026-05-05 13:41 50.44716 8.29655 26978 ft 444 kts 143°
2026-05-05 13:41 50.42333 8.32757 27228 ft 445 kts 143°
2026-05-05 13:42 50.39939 8.35871 27478 ft 447 kts 143°
2026-05-05 13:42 50.37566 8.38956 27741 ft 448 kts 143°
2026-05-05 13:42 50.35179 8.42116 28148 ft 448 kts 140°
2026-05-05 13:42 50.32937 8.45545 28595 ft 447 kts 138°
2026-05-05 13:43 50.30772 8.48953 28957 ft 446 kts 138°
2026-05-05 13:43 50.28589 8.52448 29305 ft 445 kts 138°
2026-05-05 13:43 50.26457 8.55881 29676 ft 444 kts 138°
2026-05-05 13:43 50.24297 8.59355 30027 ft 443 kts 138°
2026-05-05 13:44 50.22151 8.62786 30350 ft 442 kts 138°
2026-05-05 13:44 50.19984 8.66227 30664 ft 440 kts 139°
2026-05-05 13:44 50.17836 8.69621 30984 ft 438 kts 139°
2026-05-05 13:44 50.15723 8.72954 31298 ft 437 kts 139°
2026-05-05 13:45 50.13577 8.76335 31626 ft 435 kts 139°
2026-05-05 13:45 50.11466 8.79660 31956 ft 433 kts 139°
2026-05-05 13:45 50.09340 8.82999 32278 ft 432 kts 139°
2026-05-05 13:45 50.07217 8.86326 32601 ft 430 kts 139°
2026-05-05 13:46 50.05130 8.89594 32793 ft 429 kts 139°
2026-05-05 13:46 50.03020 8.92897 32829 ft 428 kts 139°
2026-05-05 13:46 49.98828 8.99454 32823 ft 428 kts 139°
2026-05-05 13:47 49.94617 9.06014 32820 ft 428 kts 139°
2026-05-05 13:47 49.90428 9.12528 32818 ft 428 kts 139°
2026-05-05 13:48 49.86234 9.19042 32819 ft 428 kts 139°
2026-05-05 13:48 49.82720 9.24479 32817 ft 428 kts 139°
2026-05-05 13:49 49.77805 9.32053 32818 ft 428 kts 139°
2026-05-05 13:49 49.73603 9.38521 32819 ft 427 kts 139°
2026-05-05 13:50 49.69393 9.44985 32816 ft 427 kts 139°
2026-05-05 13:50 49.65868 9.50384 32812 ft 427 kts 140°
2026-05-05 13:51 49.61637 9.56846 32813 ft 427 kts 139°
2026-05-05 13:51 49.57436 9.63254 32828 ft 427 kts 139°
2026-05-05 13:52 49.53197 9.69689 32828 ft 427 kts 140°
2026-05-05 13:52 49.48975 9.76079 32832 ft 427 kts 139°
2026-05-05 13:53 49.44743 9.82481 32834 ft 427 kts 140°
2026-05-05 13:53 49.40504 9.88875 32833 ft 427 kts 140°
2026-05-05 13:54 49.36272 9.95250 32841 ft 427 kts 140°
2026-05-05 13:54 49.32003 10.01652 32837 ft 428 kts 140°
2026-05-05 13:55 49.27756 10.07995 32830 ft 428 kts 140°
2026-05-05 13:55 49.23476 10.14391 32826 ft 428 kts 140°
2026-05-05 13:56 49.19206 10.20753 32819 ft 428 kts 140°
2026-05-05 13:56 49.14946 10.27087 32816 ft 428 kts 140°
2026-05-05 13:57 49.10680 10.33402 32816 ft 429 kts 140°
2026-05-05 13:57 49.06404 10.39722 32816 ft 429 kts 140°
2026-05-05 13:58 49.02101 10.46063 32814 ft 428 kts 140°
2026-05-05 13:58 48.97845 10.52324 32809 ft 428 kts 140°
2026-05-05 13:59 48.91389 10.61777 32807 ft 428 kts 140°
2026-05-05 14:00 48.84945 10.71194 32801 ft 428 kts 140°
2026-05-05 14:00 48.80651 10.77458 32803 ft 429 kts 139°
2026-05-05 14:01 48.76566 10.84059 32801 ft 432 kts 135°
2026-05-05 14:01 48.72605 10.90937 32804 ft 433 kts 135°
2026-05-05 14:02 48.68633 10.97768 32806 ft 433 kts 136°
2026-05-05 14:02 48.64605 11.04506 32807 ft 433 kts 136°
2026-05-05 14:03 48.60533 11.11238 32804 ft 434 kts 136°
2026-05-05 14:03 48.56480 11.17939 32805 ft 434 kts 136°
2026-05-05 14:04 48.52395 11.24700 32800 ft 435 kts 136°
2026-05-05 14:04 48.48323 11.31436 32785 ft 436 kts 136°
2026-05-05 14:05 48.44217 11.38198 32775 ft 437 kts 136°
2026-05-05 14:05 48.40126 11.44920 32779 ft 437 kts 136°
2026-05-05 14:06 48.36013 11.51664 32863 ft 439 kts 136°
2026-05-05 14:06 48.33935 11.55066 33149 ft 439 kts 136°
2026-05-05 14:06 48.31889 11.58410 33415 ft 439 kts 136°
2026-05-05 14:07 48.29815 11.61793 33689 ft 439 kts 136°
2026-05-05 14:07 48.27735 11.65183 33999 ft 439 kts 136°
2026-05-05 14:07 48.25644 11.68533 34235 ft 438 kts 138°
2026-05-05 14:07 48.23490 11.71718 34432 ft 438 kts 140°
2026-05-05 14:08 48.21263 11.74800 34631 ft 438 kts 142°
2026-05-05 14:08 48.18981 11.77841 34752 ft 439 kts 142°
2026-05-05 14:08 48.14376 11.83923 34771 ft 442 kts 142°
2026-05-05 14:09 48.09827 11.90079 34769 ft 443 kts 141°
2026-05-05 14:09 48.05286 11.96321 34768 ft 444 kts 141°
2026-05-05 14:10 48.00744 12.02548 34767 ft 444 kts 141°
2026-05-05 14:10 47.96164 12.08778 34762 ft 445 kts 141°
2026-05-05 14:11 47.91583 12.14975 34755 ft 445 kts 141°
2026-05-05 14:11 47.87009 12.21145 34750 ft 445 kts 141°
2026-05-05 14:12 47.82404 12.27368 34745 ft 446 kts 142°
2026-05-05 14:12 47.77809 12.33552 34750 ft 447 kts 141°
2026-05-05 14:13 47.73186 12.39758 34748 ft 447 kts 142°
2026-05-05 14:13 47.68560 12.45947 34749 ft 448 kts 142°
2026-05-05 14:14 47.63920 12.52120 34751 ft 449 kts 142°
2026-05-05 14:14 47.59032 12.57806 34757 ft 447 kts 147°
2026-05-05 14:15 47.54023 12.63296 34758 ft 448 kts 147°
2026-05-05 14:15 47.49030 12.68756 34767 ft 449 kts 147°
2026-05-05 14:16 47.43977 12.74269 34777 ft 450 kts 147°
2026-05-05 14:16 47.38935 12.79744 34785 ft 450 kts 147°
2026-05-05 14:17 47.33890 12.85216 34809 ft 451 kts 147°
2026-05-05 14:17 47.28855 12.90682 34831 ft 451 kts 147°
2026-05-05 14:18 47.23782 12.96123 34836 ft 451 kts 148°
2026-05-05 14:18 47.18694 13.01595 34850 ft 452 kts 147°
2026-05-05 14:19 47.13661 13.07035 34858 ft 451 kts 147°
2026-05-05 14:19 47.08574 13.12517 34877 ft 451 kts 147°
2026-05-05 14:20 47.03510 13.17942 34887 ft 452 kts 147°
2026-05-05 14:20 46.98425 13.23361 34900 ft 452 kts 148°
2026-05-05 14:21 46.93344 13.28759 34913 ft 452 kts 148°
2026-05-05 14:21 46.88251 13.34161 34927 ft 452 kts 148°
2026-05-05 14:22 46.83176 13.39531 34934 ft 452 kts 148°
2026-05-05 14:22 46.78103 13.44896 34934 ft 452 kts 148°
2026-05-05 14:23 46.72983 13.50314 34933 ft 453 kts 148°
2026-05-05 14:23 46.67883 13.55683 34935 ft 454 kts 148°
2026-05-05 14:24 46.62736 13.61076 34940 ft 455 kts 148°
2026-05-05 14:24 46.57593 13.66453 34944 ft 456 kts 148°
2026-05-05 14:25 46.52448 13.71826 34948 ft 457 kts 148°
2026-05-05 14:25 46.47268 13.77236 34950 ft 457 kts 148°
2026-05-05 14:26 46.42109 13.82603 34955 ft 458 kts 148°
2026-05-05 14:26 46.36927 13.87965 34963 ft 458 kts 148°
2026-05-05 14:27 46.31736 13.93324 34969 ft 459 kts 148°
2026-05-05 14:27 46.26538 13.98688 34982 ft 460 kts 148°
2026-05-05 14:28 46.21308 14.04075 34988 ft 460 kts 148°
2026-05-05 14:28 46.16101 14.09419 34993 ft 460 kts 148°
2026-05-05 14:29 46.10885 14.14757 35004 ft 461 kts 148°
2026-05-05 14:29 46.05674 14.20090 35003 ft 461 kts 148°
2026-05-05 14:30 46.00427 14.25450 34999 ft 461 kts 148°
2026-05-05 14:30 45.95207 14.30770 34997 ft 461 kts 148°
2026-05-05 14:31 45.89940 14.36110 34995 ft 462 kts 148°
2026-05-05 14:31 45.84698 14.41411 34992 ft 462 kts 148°
2026-05-05 14:32 45.79457 14.46701 34992 ft 463 kts 148°
2026-05-05 14:32 45.74192 14.52011 34996 ft 463 kts 148°
2026-05-05 14:33 45.68923 14.57318 34996 ft 463 kts 148°
2026-05-05 14:33 45.63642 14.62604 34997 ft 464 kts 148°
2026-05-05 14:34 45.58371 14.67886 34998 ft 464 kts 148°
2026-05-05 14:34 45.53060 14.73202 35003 ft 465 kts 147°
2026-05-05 14:35 45.48069 14.79054 35010 ft 467 kts 143°
2026-05-05 14:35 45.43080 14.85068 35007 ft 468 kts 143°
2026-05-05 14:36 45.38115 14.91043 35009 ft 469 kts 143°
2026-05-05 14:36 45.33127 14.97024 35008 ft 469 kts 143°
2026-05-05 14:37 45.28150 15.02976 35009 ft 469 kts 143°
2026-05-05 14:37 45.23142 15.08951 35002 ft 469 kts 143°
2026-05-05 14:38 45.18144 15.14901 35003 ft 470 kts 143°
2026-05-05 14:38 45.13139 15.20852 35009 ft 470 kts 143°
2026-05-05 14:39 45.08149 15.26768 35008 ft 470 kts 143°
2026-05-05 14:39 45.03112 15.32708 35007 ft 470 kts 143°
2026-05-05 14:40 44.98102 15.38613 35011 ft 471 kts 143°
2026-05-05 14:40 44.93932 15.43530 35010 ft 471 kts 143°
2026-05-05 14:41 44.88893 15.49454 35016 ft 471 kts 143°
2026-05-05 14:41 44.83857 15.55345 35020 ft 471 kts 143°
2026-05-05 14:42 44.78795 15.61253 35018 ft 471 kts 143°
2026-05-05 14:42 44.73767 15.67112 35022 ft 471 kts 143°
2026-05-05 14:43 44.68721 15.72992 35022 ft 471 kts 143°
2026-05-05 14:43 44.63670 15.78857 35026 ft 472 kts 143°
2026-05-05 14:44 44.58610 15.84699 35032 ft 472 kts 143°
2026-05-05 14:44 44.53525 15.90575 35034 ft 472 kts 143°
2026-05-05 14:45 44.48457 15.96410 35034 ft 472 kts 143°
2026-05-05 14:45 44.43365 16.02276 35043 ft 473 kts 143°
2026-05-05 14:46 44.38307 16.08086 35040 ft 473 kts 144°
2026-05-05 14:46 44.33202 16.13932 35047 ft 473 kts 144°
2026-05-05 14:47 44.28109 16.19728 35051 ft 473 kts 144°
2026-05-05 14:47 44.23024 16.25515 35057 ft 474 kts 144°
2026-05-05 14:48 44.17919 16.31325 35060 ft 474 kts 144°
2026-05-05 14:48 44.12791 16.37139 35057 ft 474 kts 144°
2026-05-05 14:49 44.07674 16.42920 35058 ft 474 kts 144°
2026-05-05 14:49 44.02567 16.48682 35063 ft 475 kts 144°
2026-05-05 14:50 43.97362 16.54306 35069 ft 474 kts 146°
2026-05-05 14:50 43.92054 16.59822 35075 ft 475 kts 147°
2026-05-05 14:51 43.86784 16.65296 35076 ft 475 kts 146°
2026-05-05 14:51 43.81534 16.70809 35074 ft 475 kts 146°
2026-05-05 14:52 43.76234 16.76377 35067 ft 476 kts 146°
2026-05-05 14:52 43.70985 16.81864 35066 ft 476 kts 147°
2026-05-05 14:53 43.65700 16.87364 35066 ft 476 kts 147°
2026-05-05 14:53 43.60402 16.92860 35068 ft 477 kts 147°
2026-05-05 14:54 43.55108 16.98355 35062 ft 477 kts 147°
2026-05-05 14:54 43.49778 17.03883 35070 ft 477 kts 147°
2026-05-05 14:55 43.44475 17.09367 35068 ft 477 kts 147°
2026-05-05 14:55 43.39171 17.14841 35062 ft 477 kts 147°
2026-05-05 14:56 43.33850 17.20313 35056 ft 478 kts 147°
2026-05-05 14:56 43.28529 17.25768 35061 ft 479 kts 147°
2026-05-05 14:57 43.23173 17.31253 35058 ft 480 kts 147°
2026-05-05 14:57 43.17839 17.36695 35049 ft 480 kts 147°
2026-05-05 14:58 43.12476 17.42160 35070 ft 481 kts 147°
2026-05-05 14:58 43.07110 17.47623 35065 ft 481 kts 147°
2026-05-05 14:59 43.01740 17.53069 35075 ft 482 kts 147°
2026-05-05 14:59 42.96325 17.58543 35062 ft 482 kts 147°
2026-05-05 15:00 42.91852 17.63057 35072 ft 483 kts 147°
2026-05-05 15:00 42.85530 17.69434 35076 ft 484 kts 147°
2026-05-05 15:01 42.80141 17.74863 35077 ft 484 kts 147°
2026-05-05 15:01 42.74696 17.80334 35080 ft 485 kts 148°
2026-05-05 15:02 42.69260 17.85771 35078 ft 486 kts 148°
2026-05-05 15:02 42.63811 17.91207 35084 ft 487 kts 148°
2026-05-05 15:03 42.58330 17.96677 35086 ft 488 kts 148°
2026-05-05 15:03 42.52886 18.02087 35086 ft 489 kts 148°
2026-05-05 15:04 42.47362 18.07563 35087 ft 490 kts 148°
2026-05-05 15:04 42.41872 18.13012 35082 ft 491 kts 148°
2026-05-05 15:05 42.33584 18.21200 35086 ft 492 kts 148°
2026-05-05 15:06 42.28064 18.26623 35087 ft 493 kts 148°
2026-05-05 15:06 42.22500 18.32079 35083 ft 494 kts 148°
2026-05-05 15:07 42.16947 18.37522 35076 ft 495 kts 148°
2026-05-05 15:07 42.11372 18.42978 35075 ft 495 kts 148°
2026-05-05 15:08 42.05767 18.48437 35071 ft 496 kts 149°
2026-05-05 15:08 42.00184 18.53883 35069 ft 497 kts 148°
2026-05-05 15:09 41.94677 18.59545 35069 ft 499 kts 146°
2026-05-05 15:09 41.89231 18.65323 35068 ft 500 kts 146°
2026-05-05 15:10 41.83744 18.71090 35069 ft 501 kts 147°
2026-05-05 15:10 41.78240 18.76774 35072 ft 502 kts 147°
2026-05-05 15:11 41.72694 18.82464 35072 ft 502 kts 147°
2026-05-05 15:11 41.67163 18.88148 35071 ft 503 kts 147°
2026-05-05 15:12 41.61610 18.93858 35074 ft 504 kts 147°
2026-05-05 15:12 41.56048 18.99577 35073 ft 505 kts 147°
2026-05-05 15:13 41.50474 19.05279 35074 ft 505 kts 147°
2026-05-05 15:13 41.44640 19.10390 35075 ft 497 kts 160°
2026-05-05 15:14 41.38241 19.13707 35073 ft 492 kts 166°
2026-05-05 15:14 41.31820 19.16841 35070 ft 493 kts 166°
2026-05-05 15:15 41.25361 19.20001 35074 ft 494 kts 166°
2026-05-05 15:15 41.18884 19.23150 35073 ft 495 kts 166°
2026-05-05 15:16 41.12429 19.26284 35073 ft 496 kts 166°
2026-05-05 15:16 41.05974 19.29410 35075 ft 496 kts 166°
2026-05-05 15:17 40.99449 19.32563 35079 ft 497 kts 166°
2026-05-05 15:17 40.92993 19.35673 35079 ft 497 kts 166°
2026-05-05 15:18 40.86454 19.38811 35077 ft 498 kts 166°
2026-05-05 15:18 40.79954 19.41932 35079 ft 498 kts 166°
2026-05-05 15:19 40.73447 19.45058 35081 ft 499 kts 165°
2026-05-05 15:19 40.66928 19.48176 35083 ft 499 kts 165°
2026-05-05 15:20 40.60412 19.51284 35081 ft 499 kts 165°
2026-05-05 15:20 40.53853 19.54408 35089 ft 500 kts 165°
2026-05-05 15:21 40.47325 19.57501 35087 ft 500 kts 165°
2026-05-05 15:21 40.40805 19.60587 35093 ft 500 kts 165°
2026-05-05 15:22 40.34229 19.63701 35097 ft 501 kts 165°
2026-05-05 15:22 40.27705 19.66785 35102 ft 501 kts 165°
2026-05-05 15:23 40.21123 19.69879 35107 ft 501 kts 165°
2026-05-05 15:23 40.14601 19.72934 35114 ft 501 kts 165°
2026-05-05 15:24 40.08062 19.75995 35117 ft 500 kts 165°
2026-05-05 15:24 40.01518 19.79063 35011 ft 500 kts 165°
2026-05-05 15:24 39.98216 19.80609 33861 ft 504 kts 165°
2026-05-05 15:25 39.94908 19.82151 32194 ft 511 kts 164°
2026-05-05 15:25 39.91549 19.83712 30778 ft 513 kts 164°
2026-05-05 15:25 39.88171 19.85295 29653 ft 517 kts 163°
2026-05-05 15:25 39.84824 19.86929 28507 ft 507 kts 162°
2026-05-05 15:26 39.81556 19.88584 27344 ft 498 kts 161°
2026-05-05 15:26 39.78386 19.90219 26149 ft 490 kts 161°
2026-05-05 15:26 39.75257 19.91838 25420 ft 474 kts 161°
2026-05-05 15:26 39.72240 19.93390 24704 ft 462 kts 161°
2026-05-05 15:27 39.69274 19.94893 23955 ft 462 kts 161°
2026-05-05 15:27 39.66269 19.96394 23162 ft 461 kts 161°
2026-05-05 15:27 39.63269 19.97885 22476 ft 458 kts 161°
2026-05-05 15:27 39.60297 19.99359 21789 ft 455 kts 161°
2026-05-05 15:28 39.57382 20.00806 21133 ft 452 kts 161°
2026-05-05 15:28 39.54439 20.02270 20477 ft 449 kts 161°
2026-05-05 15:28 39.51529 20.03721 19839 ft 446 kts 161°
2026-05-05 15:28 39.48644 20.05159 19203 ft 443 kts 161°
2026-05-05 15:29 39.45723 20.06143 18616 ft 434 kts 178°
2026-05-05 15:29 39.42770 20.05734 18008 ft 422 kts 201°
2026-05-05 15:29 39.40258 20.03948 17546 ft 406 kts 223°
2026-05-05 15:29 39.38369 20.01355 17080 ft 394 kts 236°
2026-05-05 15:30 39.36860 19.98438 16615 ft 387 kts 241°
2026-05-05 15:30 39.35472 19.95460 16143 ft 382 kts 241°
2026-05-05 15:30 39.34067 19.92599 15693 ft 379 kts 238°
2026-05-05 15:30 39.32552 19.89827 15239 ft 376 kts 235°
2026-05-05 15:31 39.30938 19.87146 14590 ft 379 kts 233°
2026-05-05 15:31 39.29255 19.84532 14095 ft 377 kts 231°
2026-05-05 15:31 39.28127 19.82830 13732 ft 376 kts 231°
2026-05-05 15:31 39.25866 19.79454 13019 ft 372 kts 231°
2026-05-05 15:32 39.24208 19.76903 12475 ft 369 kts 236°
2026-05-05 15:32 39.23115 19.73965 11954 ft 362 kts 257°
2026-05-05 15:32 39.22853 19.71847 11852 ft 344 kts 269°
2026-05-05 15:32 39.23034 19.68914 11477 ft 324 kts 284°
2026-05-05 15:33 39.24226 19.65475 10608 ft 314 kts 307°
2026-05-05 15:33 39.25179 19.64058 10131 ft 312 kts 317°
2026-05-05 15:33 39.26932 19.62441 9392 ft 308 kts 334°
2026-05-05 15:33 39.28896 19.61543 8995 ft 293 kts 348°
2026-05-05 15:34 39.30865 19.61467 8612 ft 282 kts 12°
2026-05-05 15:34 39.32629 19.62524 8234 ft 280 kts 39°
2026-05-05 15:34 39.33814 19.64503 7860 ft 281 kts 67°
2026-05-05 15:34 39.34164 19.66958 7494 ft 282 kts 94°
2026-05-05 15:35 39.33605 19.69359 7127 ft 280 kts 122°
2026-05-05 15:35 39.32286 19.71125 6764 ft 277 kts 148°
2026-05-05 15:35 39.30593 19.72295 6402 ft 276 kts 154°
2026-05-05 15:35 39.28859 19.73366 6018 ft 275 kts 155°
2026-05-05 15:36 39.27276 19.74731 5641 ft 274 kts 134°
2026-05-05 15:36 39.26245 19.76774 5263 ft 272 kts 110°
2026-05-05 15:36 39.25951 19.79129 4898 ft 271 kts 86°
2026-05-05 15:36 39.26436 19.81463 4744 ft 271 kts 62°
2026-05-05 15:37 39.27511 19.83473 4563 ft 271 kts 52°
2026-05-05 15:37 39.28641 19.85376 4365 ft 271 kts 52°
2026-05-05 15:37 39.29787 19.87307 4174 ft 270 kts 52°
2026-05-05 15:37 39.30926 19.89233 3968 ft 270 kts 52°
2026-05-05 15:38 39.32066 19.91160 3699 ft 267 kts 52°
2026-05-05 15:38 39.33168 19.93025 3403 ft 261 kts 52°
2026-05-05 15:38 39.34260 19.94877 3090 ft 255 kts 52°
2026-05-05 15:38 39.35360 19.96583 2890 ft 237 kts 41°
2026-05-05 15:39 39.36723 19.97669 2870 ft 222 kts 19°
2026-05-05 15:39 39.38169 19.98038 2867 ft 208 kts 359°
2026-05-05 15:39 39.39601 19.97966 2874 ft 203 kts 356°
2026-05-05 15:39 39.41013 19.97888 2876 ft 201 kts 356°
2026-05-05 15:40 39.42401 19.97759 2733 ft 202 kts 347°
2026-05-05 15:40 39.43747 19.97271 2536 ft 200 kts 342°
2026-05-05 15:40 39.45058 19.96778 2358 ft 191 kts 342°
2026-05-05 15:40 39.46303 19.96314 2165 ft 180 kts 342°
2026-05-05 15:41 39.47472 19.95878 1962 ft 173 kts 341°
2026-05-05 15:41 39.48596 19.95458 1758 ft 162 kts 341°
2026-05-05 15:41 39.49655 19.95062 1697 ft 155 kts 341°
2026-05-05 15:41 39.50670 19.94681 1683 ft 150 kts 341°
2026-05-05 15:42 39.51667 19.94306 1570 ft 149 kts 341°
2026-05-05 15:42 39.52658 19.93933 1355 ft 148 kts 342°
2026-05-05 15:42 39.53628 19.93567 1148 ft 147 kts 341°
2026-05-05 15:42 39.54610 19.93191 945 ft 146 kts 339°
2026-05-05 15:43 39.55563 19.92729 794 ft 145 kts 334°
2026-05-05 15:43 39.56502 19.92212 648 ft 148 kts 336°
2026-05-05 15:43 39.57493 19.91861 434 ft 150 kts 345°
2026-05-05 15:43 39.58517 19.91652 234 ft 148 kts 348°
2026-05-05 15:44 39.59522 19.91394 15 ft 142 kts 345°
2026-05-05 15:44 39.60369 19.91166 6 ft 101 kts 348°
2026-05-05 15:44 39.60862 19.91039 6 ft 42 kts 349°
2026-05-05 15:44 39.61034 19.91019 6 ft 8 kts 54°
2026-05-05 15:45 39.61051 19.91075 7 ft 5 kts 70°
2026-05-05 15:45 39.61048 19.91098 7 ft 1 kts 113°
2026-05-05 15:45 39.61003 19.91139 8 ft 15 kts 168°
2026-05-05 15:45 39.60895 19.91164 9 ft 17 kts 167°
2026-05-05 15:46 39.60774 19.91198 7 ft 19 kts 166°
2026-05-05 15:46 39.60657 19.91232 8 ft 13 kts 152°
2026-05-05 15:46 39.60654 19.91289 8 ft 4 kts 79°
2026-05-05 15:46 39.60659 19.91321 8 ft 3 kts 77°
2026-05-05 15:47 39.60663 19.91340 8 ft 2 kts 69°
2026-05-05 15:47 39.60665 19.91350 8 ft 0 kts 77°